Terminal Aerodrome Forecast
Issued by NWS Amarillo, TX

Home | Current Version | Previous Version | Text Only | Print | Product List | Glossary On
Versions: 1 2 3 4 5 6 7 8 9 10 11 12 13
000
FTUS44 KAMA 251100
TAFGUY
TAF
KGUY 251120Z 2512/2612 19014KT P6SM FEW300
     FM251400 21017G26KT P6SM FEW100
     FM252300 19011KT P6SM SCT100=

USA.gov is the U.S. government's official web portal to all federal, state and local government web resources and services.